Location: Augustenthal
(51.7167°N, 10.2833°E)
Time: 03:40:39
(UTC+00:00)

Cosmos 1238 Rocket - Pass Details

Date: 18 May 2021
Orbit: 374 x 1021 km, 82.9° (Epoch: 14 June)

Event Time Altitude Azimuth Distance (km) Brightness Sun altitude
Rises 20:31:43 0° 351° (N) 3,588 8.1 -10.1°
Reaches altitude 10° 20:34:28 10° 357° (N) 2,557 7.1 -10.4°
Maximum altitude 20:40:07 52° 73° (ENE) 971 3.9 -10.9°
Enters shadow 20:43:57 16° 146° (SE) 1,815 4.8 -11.3°
